FENGYUN 1C DEB, 29917

Orbit data source: Space-Track

FENGYUN 1C DEB, 29917 is space debris in SSO originally from a launch on Mon, 10 May 1999 UTC launched from the Taiyaun Space Center, China (TSC). Fengyun 1C debris stems from the Chinese weather satellite Fengyun-1C, which was intentionally destroyed by a Chinese anti-satellite missile in 2007. This event dramatically increased the amount of space debris, with thousands of trackable fragments posing hazards to satellites and human spaceflight. The Fengyun 1C debris cloud has become a focal point in discussions about space sustainability and the need for international regulations to prevent the creation of new debris.

Loading next visibility...
Identifier
29917, 1999-025HP
Orbit
SSO
Country
Flag of CNCN / PRC
Related business
Manufacturer
Unknown
Mission
Spacecraft
Bus & Motor
Unknown
Mass
Unknown
Launch date (UTC)
1999-05-10 (26 years ago)
Launch vehicle
Unknown
Launch site
Taiyaun Space Center, China (TSC)
Object type
Payload
Rocket body
Debris
Shape & HBR
Unknown shape, 0.1 m
Radar Cross Section
Small (<0.1 m²)

Expand to show TLE details & history
Last TLE update: 12 hours ago

TLE from 12 hours ago
0 FENGYUN 1C DEB
1 29917U 99025HP  25286.60123559  .00001217  00000-0  11948-2 0  9993
2 29917  98.8791 152.7939 0224662 284.0208 101.5014 13.70245159933075
Epoch: 2025-10-13T14:25Z
TLE epoch observation values (Epoch: 2025-10-13T14:25:46.754Z)
Latitude
27.7055°
Longitude
-90.73398°
Altitude
1,038.629 km
Speed
7.317 km/s
True Right ascension
09h 52m 27s
True Declination
27° 34' 10"
Sunlit
Object was in daylight at epoch
Visualization orbit readout
Latitude
Unknown
Longitude
Unknown
Altitude
Unknown
Speed
Unknown
Apparent Right ascension
Unknown
Apparent Declination
Unknown
Sunlit
N/A
Visualization observer readout
Local Sidereal Time
21:11:32
Azimuth
Unknown
Elevation
Unknown
Doppler factor
Unknown
Orbital elements
Apogee altitude
1,161.59 km
Perigee altitude
830.255 km
Semi-major axis
7,374.059 km
Eccentricity
0.02247
Inclination
98.8791°
RAAN
152.7939°
Arg. of periapsis
284.0208°
True anomaly
104.00929°
Mean anomaly
101.5014°
Eccentric anomaly
102.75684°
Mean motion
3.42755 °/min
Orbital period
105.03 mins
BSTAR
0.0011948
Loading maneuver chart data...
Computing Atmospheric mass density...

Documentation

Showing up to 5 results
|